sat.trackr.live / text

‹ back to catalog

STARLINK-4146

NORAD 53294 · 2022-086BE

PAYLOAD ACTIVE UNKNOWN

§ Identity

Operator
Country
US
Launch date
2022-07-24
Launch site
AFETR
Launch vehicle
Mass (kg)
RCS (m²)

Purposes: comms

External: N2YO · Heavens-Above · Gunter

§ Orbital elements

Epoch: 2026-05-25T03:28:59.164608Z

Period
95.44 min
Inclination
53.2128°
Eccentricity
0.0000898
Mean motion
15.08847713 rev/d
Perigee alt
539.1 km
Apogee alt
540.3 km
Semi-major
6,917.9 km
B*
-1.5575e-4
RAAN
190.7339°
Arg perigee
71.1714°
Mean anomaly
288.9375°
Rev number
21,291

§ Raw data

STARLINK-41461 53294U 22086BE  26145.14512922 -.00002766  00000+0 -15575-3 0  99932 53294  53.2128 190.7339 0000898  71.1714 288.9375 15.08847713212915

JSON: /api/v1/satellites/53294 · /tle

For live sub-satellite position, see the globe view (requires WebGL).

§ Visibility from observer

Set your observer location to see the next 7 days of passes ≥ 10°. The values pass through the URL so the page stays shareable.

No JS? Fill the form by hand. The geolocation button needs JavaScript.